Flag for Hungary Weather past 2 weeks in Szeged, Hungary

Now
47 °F

Overcast.


Feels Like: 43 °F
Forecast: 38 / 42 °F
Wind: 7 mph from South

Location: Szeged

Current Time: Mar 4, 2015 at 12:16:13 PM

Latest Report: Mar 4, 2015 at 11:00 AM


Visibility: 19 mi

Pressure: 30.25 "Hg

Humidity: 48%

Dew point: 28 °F

Location of SzegedLocation

Historic Weather in Szeged — Graph

°F

Szeged temperature yesterday

Maximum temperature yesterday: 48 °F (at 3:00 PM)
Minimum temperature yesterday: 35 °F (at 11:00 PM)
Average temperature yesterday: 42 °F

Past Weeks' High & Low Weather Summary

 TemperatureHumidityPressure
High57 °F (Feb 24, 3:00 PM)96% (Feb 23, 4:00 AM)30.76 "Hg (Feb 23, 4:00 AM)
Low20 °F (Feb 18, 7:00 AM)29% (Feb 18, 3:00 PM)29.64 "Hg (Feb 24, 4:00 PM)
Average41 °F79%30.06 "Hg
* Reported Feb 17 11:00 AM — Mar 4 11:00 AM, Szeged, Weather by CustomWeather, © 2015

Note: Actual official high and low records may vary slightly from our data, if they occured in-between our weather recording intervals... More about our weather records

Advertising

Szeged weather history for previous 24 hours

 ConditionsComfort  
Time TempWeatherWind HumidityBarometerVisibility
11:00 AM
Wed, Mar 4
47 °FOvercast.7 mph48%30.25 "Hg19 mi
10:00 AM44 °FPartly sunny.6 mph60%30.26 "Hg11 mi
9:00 AM38 °FOvercast.6 mph71%30.26 "Hg14 mi
8:00 AM33 °FPartly sunny.3 mph79%30.28 "Hg11 mi
7:00 AM30 °FPartly sunny.2 mph80%30.28 "Hg9 mi
6:00 AM30 °FPassing clouds.3 mph79%30.27 "Hg9 mi
5:00 AM30 °FPassing clouds.3 mph81%30.29 "Hg9 mi
4:00 AM30 °FPassing clouds.3 mph77%30.29 "Hg7 mi
3:00 AM29 °FPassing clouds.2 mph86%30.30 "Hg9 mi
2:00 AM32 °FClear.2 mph79%30.31 "Hg16 mi
1:00 AM32 °FClear.2 mph79%30.33 "Hg16 mi
12:00 AM33 °FClear.2 mph78%30.32 "Hg19 mi
11:00 PM
Tue, Mar 3
35 °FClear.3 mph69%30.32 "Hg19 mi
10:00 PM36 °FClear.2 mph67%30.31 "Hg19 mi
9:00 PM36 °FClear.No wind59%30.31 "Hg19 mi
8:00 PM37 °FClear.5 mph60%30.29 "Hg25 mi
7:00 PM39 °FPassing clouds.5 mph54%30.28 "Hg28 mi
6:00 PM42 °FPassing clouds.5 mph52%30.26 "Hg28 mi
5:00 PM47 °FPassing clouds.9 mph37%30.25 "Hg37 mi
4:00 PM48 °FPassing clouds.10 mph41%30.24 "Hg37 mi
3:00 PM48 °FPassing clouds.13 mph43%30.22 "Hg43 mi
2:00 PM48 °FPassing clouds.14 mph42%30.21 "Hg43 mi
1:00 PM47 °FPassing clouds.14 mph45%30.20 "Hg43 mi
12:00 PM47 °FScattered clouds.15 mph50%30.20 "Hg43 mi
Weather by CustomWeather, © 2015

See weather overviewHow to use our weather pages